Location: Proctor
(47.8934°N, 114.3048°W)
Time: 11:35:07
(UTC+00:00)

AIST 2D - Pass Details

Date: 01 July 2022
Orbit: 433 x 444 km, 97.0° (Epoch: 10 August)

Event Time Altitude Azimuth Distance (km) Brightness Sun altitude
Rises 06:35:22 0° 352° (N) 2,427 ? -17.5°
Reaches altitude 10° 06:38:31 10° 318° (NW) 1,553 ? -17.6°
Maximum altitude 06:39:42 12° 297° (WNW) 1,459 ? -17.7°
Drops below altitude 10° 06:40:53 10° 276° (W) 1,550 ? -17.7°
Enters shadow 06:43:38 - 245° (WSW) 2,276 ? -17.8°
